Regional Weather Roundup
Issued by NWS

Home | Current Version | Previous Version | Graphics & Text | Print | Product List | Glossary On
Versions: 1 2 3 4 5 6 7 8 9 10 11 12 13 14 15 16 17 18 19 20 21 22 23 24 25 26 27 28 29 30 31 32 33 34 35 36 37 38 39 40 41 42 43 44 45 46 47 48 49 50
000
ASUS43 KLMK 211510
RWRKY
KENTUCKY REGIONAL WEATHER ROUNDUP
NATIONAL WEATHER SERVICE LOUISVILLE KY
1100 AM EDT FRI JUL 21 2017

NOTE "FAIR" INDICATES FEW OR NO CLOUDS BELOW 12,000 FEET
WITH NO SIGNIFICANT WEATHER AND/OR OBSTRUCTIONS TO VISIBILITY.

KYZ001>023-026-027-061>063-070>075-211600-
WESTERN AND SOUTH CENTRAL KENTUCKY

CITY           SKY/WX    TMP DP  RH WIND       PRES   REMARKS
PADUCAH        SUNNY     89  77  67 VRB7      30.01F HX 101
HENDERSON      MOSUNNY   87  78  74 SW5       30.02S HX 100
OWENSBORO      SUNNY     87  78  74 SW7       30.02F HX 100
HOPKINSVILLE   SUNNY     88  76  67 SW7       30.05F HX  99
BOWLING GREEN  CLOUDY    89  76  65 SW7       30.05F HX 100
GLASGOW        SUNNY     88  73  60 W5        30.08S HX  95
$$

KYZ024-025-028>034-038-045-046-053-211600-
NORTH CENTRAL KENTUCKY

CITY           SKY/WX    TMP DP  RH WIND       PRES   REMARKS
LOUISVILLE/SDF CLOUDY    89  74  60 CALM      30.04F HX  98
LOUISVILLE/LOU CLOUDY    87  76  69 CALM      30.04F HX  97
FORT KNOX      PTSUNNY   85  76  74 N9        30.04F HX  95
$$

KYZ035>037-039>044-047>052-055>060-089>105-211600-
NORTHEAST KENTUCKY

CITY           SKY/WX    TMP DP  RH WIND       PRES   REMARKS
LEXINGTON      PTSUNNY   85  73  67 N3        30.09F HAZE    HX  91
COVINGTON      CLOUDY    74  74 100 S8        30.03F
FRANKFORT      CLOUDY    85  74  69 VRB5      30.06S HX  92
$$

KYZ054-064>069-076>088-106>120-211600-
SOUTHEAST KENTUCKY

CITY           SKY/WX    TMP DP  RH WIND       PRES   REMARKS
JACKSON        LGT RAIN  78  73  84 NW6       30.13R
LONDON         PTSUNNY   83  72  69 W7        30.11R
SOMERSET       CLOUDY    82  73  74 CALM      30.11R
MIDDLESBORO    MOSUNNY   80  74  80 CALM      30.12S
MONTICELLO     PTSUNNY   84  77  79 NW5       30.11F HX  94
$$





USA.gov is the U.S. government's official web portal to all federal, state and local government web resources and services.